Time,TemperatureF,DewpointF,PressureIn,WindDirection,WindDirectionDegrees,WindSpeedMPH,WindSpeedGustMPH,Humidity,HourlyPrecipIn,Conditions,Clouds,dailyrainin,SoftwareType,DateUTC
2013-02-01 00:22:00,28.0,-99.9,29.81,West,259,-999.0,-999.0,-999,-99.99,,,-99.99,,2013-02-01 05:22:00,
2013-02-01 00:32:00,28.0,-99.9,29.81,West,259,-999.0,-999.0,-999,-99.99,,,-99.99,,2013-02-01 05:32:00,
2013-02-01 00:42:00,28.0,-99.9,29.81,West,259,-999.0,-999.0,-999,-99.99,,,-99.99,,2013-02-01 05:42:00,
2013-02-01 00:52:00,28.0,-99.9,29.83,West,259,-999.0,-999.0,-999,-99.99,,,-99.99,,2013-02-01 05:52:00,
2013-02-01 01:22:00,28.0,-99.9,29.83,West,259,-999.0,-999.0,-999,-99.99,,,-99.99,,2013-02-01 06:22:00,
2013-02-01 01:32:00,28.0,-99.9,29.83,West,259,-999.0,-999.0,-999,-99.99,,,-99.99,,2013-02-01 06:32:00,
2013-02-01 01:42:00,28.0,-99.9,29.83,West,259,-999.0,-999.0,-999,-99.99,,,-99.99,,2013-02-01 06:42:00,
2013-02-01 01:52:00,27.0,-99.9,29.83,West,259,-999.0,-999.0,-999,-99.99,,,-99.99,,2013-02-01 06:52:00,
2013-02-01 02:22:00,27.0,-99.9,29.83,West,259,-999.0,-999.0,-999,-99.99,,,-99.99,,2013-02-01 07:22:00,
2013-02-01 02:32:00,27.0,-99.9,29.83,West,259,-999.0,-999.0,-999,-99.99,,,-99.99,,2013-02-01 07:32:00,
2013-02-01 02:42:00,27.0,-99.9,29.83,West,259,-999.0,-999.0,-999,-99.99,,,-99.99,,2013-02-01 07:42:00,
2013-02-01 02:52:00,26.0,-99.9,29.83,West,259,-999.0,-999.0,-999,-99.99,,,-99.99,,2013-02-01 07:52:00,
2013-02-01 03:22:00,26.0,-99.9,29.83,West,259,-999.0,-999.0,-999,-99.99,,,-99.99,,2013-02-01 08:22:00,
2013-02-01 03:32:00,26.0,-99.9,29.83,West,259,-999.0,-999.0,-999,-99.99,,,-99.99,,2013-02-01 08:32:00,
2013-02-01 03:42:00,26.0,-99.9,29.83,West,259,-999.0,-999.0,-999,-99.99,,,-99.99,,2013-02-01 08:42:00,
2013-02-01 03:52:00,26.0,-99.9,29.84,WSW,238,-999.0,-999.0,-999,-99.99,,,-99.99,,2013-02-01 08:52:00,
2013-02-01 04:22:00,26.0,-99.9,29.84,WSW,238,-999.0,-999.0,-999,-99.99,,,-99.99,,2013-02-01 09:22:00,
2013-02-01 04:32:00,26.0,-99.9,29.84,WSW,238,-999.0,-999.0,-999,-99.99,,,-99.99,,2013-02-01 09:32:00,
2013-02-01 04:42:00,26.0,-99.9,29.84,WSW,238,-999.0,-999.0,-999,-99.99,,,-99.99,,2013-02-01 09:42:00,
2013-02-01 04:52:00,26.0,-99.9,29.85,WSW,238,-999.0,-999.0,-999,-99.99,,,-99.99,,2013-02-01 09:52:00,
2013-02-01 05:21:00,26.0,-99.9,29.85,WSW,238,-999.0,-999.0,-999,-99.99,,,-99.99,,2013-02-01 10:21:00,
2013-02-01 05:32:00,26.0,-99.9,29.85,WSW,238,-999.0,-999.0,-999,-99.99,,,-99.99,,2013-02-01 10:32:00,
2013-02-01 05:43:00,26.0,-99.9,29.85,WSW,238,-999.0,-999.0,-999,-99.99,,,-99.99,,2013-02-01 10:43:00,
2013-02-01 05:52:00,26.0,-99.9,29.86,WSW,238,-999.0,-999.0,-999,-99.99,,,-99.99,,2013-02-01 10:52:00,
2013-02-01 06:22:00,26.0,-99.9,29.86,WSW,238,-999.0,-999.0,-999,-99.99,,,-99.99,,2013-02-01 11:22:00,
2013-02-01 06:32:00,26.0,-99.9,29.86,WSW,238,-999.0,-999.0,-999,-99.99,,,-99.99,,2013-02-01 11:32:00,
2013-02-01 06:42:00,26.0,-99.9,29.86,WSW,238,-999.0,-999.0,-999,-99.99,,,-99.99,,2013-02-01 11:42:00,
2013-02-01 06:52:00,26.0,-99.9,29.85,WSW,238,-999.0,-999.0,-999,-99.99,,,-99.99,,2013-02-01 11:52:00,
2013-02-01 07:23:00,26.0,-99.9,29.85,WSW,238,-999.0,-999.0,-999,-99.99,,,-99.99,,2013-02-01 12:23:00,
2013-02-01 07:32:00,26.0,-99.9,29.85,WSW,238,-999.0,-999.0,-999,-99.99,,,-99.99,,2013-02-01 12:32:00,
2013-02-01 07:42:00,26.0,-99.9,29.85,WSW,238,-999.0,-999.0,-999,-99.99,,,-99.99,,2013-02-01 12:42:00,
2013-02-01 07:52:00,28.0,-99.9,29.85,WSW,238,-999.0,-999.0,-999,-99.99,,,-99.99,,2013-02-01 12:52:00,
2013-02-01 08:22:00,28.0,-99.9,29.85,WSW,238,-999.0,-999.0,-999,-99.99,,,-99.99,,2013-02-01 13:22:00,
2013-02-01 08:33:00,28.0,-99.9,29.85,WSW,238,-999.0,-999.0,-999,-99.99,,,-99.99,,2013-02-01 13:33:00,
2013-02-01 08:43:00,28.0,-99.9,29.85,WSW,238,-999.0,-999.0,-999,-99.99,,,-99.99,,2013-02-01 13:43:00,
2013-02-01 08:52:00,29.0,-99.9,29.88,WSW,243,-999.0,-999.0,-999,-99.99,,,-99.99,,2013-02-01 13:52:00,
2013-02-01 09:22:00,29.0,-99.9,29.88,WSW,243,-999.0,-999.0,-999,-99.99,,,-99.99,,2013-02-01 14:22:00,
2013-02-01 09:33:00,29.0,-99.9,29.88,WSW,243,-999.0,-999.0,-999,-99.99,,,-99.99,,2013-02-01 14:33:00,
2013-02-01 09:42:00,29.0,-99.9,29.88,WSW,243,-999.0,-999.0,-999,-99.99,,,-99.99,,2013-02-01 14:42:00,
2013-02-01 09:52:00,29.0,-99.9,29.90,North,-999,-999.0,-999.0,-999,-99.99,,,-99.99,,2013-02-01 14:52:00,
2013-02-01 10:22:00,29.0,-99.9,29.90,North,-999,-999.0,-999.0,-999,-99.99,,,-99.99,,2013-02-01 15:22:00,
2013-02-01 10:33:00,29.0,-99.9,29.90,North,-999,-999.0,-999.0,-999,-99.99,,,-99.99,,2013-02-01 15:33:00,
2013-02-01 10:42:00,29.0,-99.9,29.90,North,-999,-999.0,-999.0,-999,-99.99,,,-99.99,,2013-02-01 15:42:00,
2013-02-01 10:52:00,30.0,-99.9,29.91,North,-999,-999.0,3.0,-999,-99.99,,,-99.99,,2013-02-01 15:52:00,
2013-02-01 11:22:00,30.0,-99.9,29.91,North,-999,-999.0,3.0,-999,-99.99,,,-99.99,,2013-02-01 16:22:00,
2013-02-01 11:33:00,30.0,-99.9,29.91,North,-999,-999.0,3.0,-999,-99.99,,,-99.99,,2013-02-01 16:33:00,
2013-02-01 11:43:00,30.0,-99.9,29.91,North,-999,-999.0,3.0,-999,-99.99,,,-99.99,,2013-02-01 16:43:00,
2013-02-01 11:52:00,31.0,-99.9,29.91,North,-999,-999.0,-999.0,-999,-99.99,,,-99.99,,2013-02-01 16:52:00,
2013-02-01 12:22:00,31.0,-99.9,29.91,North,-999,-999.0,-999.0,-999,-99.99,,,-99.99,,2013-02-01 17:22:00,
2013-02-01 12:32:00,31.0,-99.9,29.91,North,-999,-999.0,-999.0,-999,-99.99,,,-99.99,,2013-02-01 17:32:00,
2013-02-01 12:42:00,31.0,-99.9,29.91,North,-999,-999.0,-999.0,-999,-99.99,,,-99.99,,2013-02-01 17:42:00,
2013-02-01 12:52:00,31.0,-99.9,29.92,WNW,286,-999.0,21.0,-999,-99.99,,,-99.99,,2013-02-01 17:52:00,
2013-02-01 13:23:00,31.0,-99.9,29.92,WNW,286,-999.0,21.0,-999,-99.99,,,-99.99,,2013-02-01 18:23:00,
2013-02-01 13:33:00,31.0,-99.9,29.92,WNW,286,-999.0,21.0,-999,-99.99,,,-99.99,,2013-02-01 18:33:00,
2013-02-01 13:42:00,31.0,-99.9,29.92,WNW,286,-999.0,21.0,-999,-99.99,,,-99.99,,2013-02-01 18:42:00,
2013-02-01 13:52:00,29.0,-99.9,29.94,West,275,-999.0,-999.0,-999,-99.99,,,-99.99,,2013-02-01 18:52:00,
2013-02-01 14:22:00,29.0,-99.9,29.94,West,275,-999.0,-999.0,-999,-99.99,,,-99.99,,2013-02-01 19:22:00,
2013-02-01 14:33:00,29.0,-99.9,29.94,West,275,-999.0,-999.0,-999,-99.99,,,-99.99,,2013-02-01 19:33:00,
2013-02-01 14:42:00,29.0,-99.9,29.94,West,275,-999.0,-999.0,-999,-99.99,,,-99.99,,2013-02-01 19:42:00,
2013-02-01 14:52:00,30.0,-99.9,29.97,North,-999,-999.0,-999.0,-999,-99.99,,,-99.99,,2013-02-01 19:52:00,
2013-02-01 15:22:00,30.0,-99.9,29.97,North,-999,-999.0,-999.0,-999,-99.99,,,-99.99,,2013-02-01 20:22:00,
2013-02-01 15:32:00,30.0,-99.9,29.97,North,-999,-999.0,-999.0,-999,-99.99,,,-99.99,,2013-02-01 20:32:00,
2013-02-01 15:42:00,30.0,-99.9,29.97,North,-999,-999.0,-999.0,-999,-99.99,,,-99.99,,2013-02-01 20:42:00,
2013-02-01 15:52:00,29.0,-99.9,30.01,North,-999,-999.0,9.0,-999,-99.99,,,-99.99,,2013-02-01 20:52:00,
2013-02-01 16:22:00,29.0,-99.9,30.01,North,-999,-999.0,9.0,-999,-99.99,,,-99.99,,2013-02-01 21:22:00,
2013-02-01 16:32:00,29.0,-99.9,30.01,North,-999,-999.0,9.0,-999,-99.99,,,-99.99,,2013-02-01 21:32:00,
2013-02-01 16:42:00,29.0,-99.9,30.01,North,-999,-999.0,9.0,-999,-99.99,,,-99.99,,2013-02-01 21:42:00,
2013-02-01 16:52:00,27.0,-99.9,30.05,WNW,288,-999.0,-999.0,-999,-99.99,,,-99.99,,2013-02-01 21:52:00,
2013-02-01 17:22:00,27.0,-99.9,30.05,WNW,288,-999.0,-999.0,-999,-99.99,,,-99.99,,2013-02-01 22:22:00,
2013-02-01 17:32:00,27.0,-99.9,30.05,WNW,288,-999.0,-999.0,-999,-99.99,,,-99.99,,2013-02-01 22:32:00,
2013-02-01 17:42:00,27.0,-99.9,30.05,WNW,288,-999.0,-999.0,-999,-99.99,,,-99.99,,2013-02-01 22:42:00,
2013-02-01 17:52:00,26.0,-99.9,30.09,WNW,288,-999.0,-999.0,-999,-99.99,,,-99.99,,2013-02-01 22:52:00,
2013-02-01 18:22:00,26.0,-99.9,30.09,WNW,288,-999.0,-999.0,-999,-99.99,,,-99.99,,2013-02-01 23:22:00,
2013-02-01 18:32:00,26.0,-99.9,30.09,WNW,288,-999.0,-999.0,-999,-99.99,,,-99.99,,2013-02-01 23:32:00,
2013-02-01 18:42:00,26.0,-99.9,30.09,WNW,288,-999.0,-999.0,-999,-99.99,,,-99.99,,2013-02-01 23:42:00,
2013-02-01 18:52:00,26.0,-99.9,30.13,WNW,288,-999.0,-999.0,-999,-99.99,,,-99.99,,2013-02-01 23:52:00,
2013-02-01 19:22:00,26.0,-99.9,30.13,WNW,288,-999.0,-999.0,-999,-99.99,,,-99.99,,2013-02-02 00:22:00,
2013-02-01 19:32:00,26.0,-99.9,30.13,WNW,288,-999.0,-999.0,-999,-99.99,,,-99.99,,2013-02-02 00:32:00,
2013-02-01 19:42:00,26.0,-99.9,30.13,WNW,288,-999.0,-999.0,-999,-99.99,,,-99.99,,2013-02-02 00:42:00,
2013-02-01 19:52:00,26.0,-99.9,30.16,WNW,288,-999.0,-999.0,-999,-99.99,,,-99.99,,2013-02-02 00:52:00,
2013-02-01 20:22:00,26.0,-99.9,30.16,WNW,288,-999.0,-999.0,-999,-99.99,,,-99.99,,2013-02-02 01:22:00,
2013-02-01 20:32:00,26.0,-99.9,30.16,WNW,288,-999.0,-999.0,-999,-99.99,,,-99.99,,2013-02-02 01:32:00,
2013-02-01 20:42:00,26.0,-99.9,30.16,WNW,288,-999.0,-999.0,-999,-99.99,,,-99.99,,2013-02-02 01:42:00,
2013-02-01 20:52:00,25.0,-99.9,30.18,WNW,288,-999.0,-999.0,-999,-99.99,,,-99.99,,2013-02-02 01:52:00,
2013-02-01 21:22:00,25.0,-99.9,30.18,WNW,288,-999.0,-999.0,-999,-99.99,,,-99.99,,2013-02-02 02:22:00,
2013-02-01 21:32:00,25.0,-99.9,30.18,WNW,288,-999.0,-999.0,-999,-99.99,,,-99.99,,2013-02-02 02:32:00,
2013-02-01 21:42:00,25.0,-99.9,30.18,WNW,288,-999.0,-999.0,-999,-99.99,,,-99.99,,2013-02-02 02:42:00,
2013-02-01 21:52:00,24.0,-99.9,30.21,North,-999,-999.0,-999.0,-999,-99.99,,,-99.99,,2013-02-02 02:52:00,
2013-02-01 22:22:00,24.0,-99.9,30.21,North,-999,-999.0,-999.0,-999,-99.99,,,-99.99,,2013-02-02 03:22:00,
2013-02-01 22:32:00,24.0,-99.9,30.21,North,-999,-999.0,-999.0,-999,-99.99,,,-99.99,,2013-02-02 03:32:00,
2013-02-01 22:42:00,24.0,-99.9,30.21,North,-999,-999.0,-999.0,-999,-99.99,,,-99.99,,2013-02-02 03:42:00,
2013-02-01 22:52:00,23.0,-99.9,30.23,North,-999,-999.0,-999.0,-999,-99.99,,,-99.99,,2013-02-02 03:52:00,
2013-02-01 23:22:00,23.0,-99.9,30.23,North,-999,-999.0,-999.0,-999,-99.99,,,-99.99,,2013-02-02 04:22:00,
2013-02-01 23:33:00,23.0,-99.9,30.23,North,-999,-999.0,-999.0,-999,-99.99,,,-99.99,,2013-02-02 04:33:00,
2013-02-01 23:42:00,23.0,-99.9,30.23,North,-999,-999.0,-999.0,-999,-99.99,,,-99.99,,2013-02-02 04:42:00,
2013-02-01 23:52:00,22.0,-99.9,30.25,North,-999,-999.0,-999.0,-999,-99.99,,,-99.99,,2013-02-02 04:52:00,